Fitchburg, MA

6:23 PM EST on November 23, 2017 (GMT -0500)
Fitchburg Municipal

Weather History for KFIT - October, 2012

Change the Weather History Date:

Saturday, October 6, 2012

  Actual Average (KORH) Record (KORH)
Temperature  
Mean Temperature 64 °F -  
Max Temperature 79 °F 62 °F 85 °F (1946)
Min Temperature 50 °F 43 °F 27 °F (1984)
Growing Degree Days 14 (Base 50)    
Moisture  
Dew Point 52 °F    
Average Humidity 81    
Maximum Humidity 100    
Minimum Humidity 45    
Precipitation  
Precipitation 0.01 in - - ()
Sea Level Pressure  
Sea Level Pressure 29.83 in    
Wind  
Wind Speed 3 mph (WSW)    
Max Wind Speed 18 mph    
Max Gust Speed 26 mph    
Visibility 6 miles    
Events Fog , Rain    
Averages and records for this station are not official NWS values.
T = Trace of Precipitation, MM = Missing Value Source: NWS Daily Summary

Daily Weather History Graph

Daily Weather History Graph

Search for Another Location

Airport or City:

Trip Planner

Search our weather history database for the weather conditions in past years. The results will help you decide how hot, cold, wet, or windy it might be!

Date:

Astronomy

Oct. 06, 2012 Rise Set
Actual Time 6:50 AM EDT 6:19 PM EDT
Civil Twilight 6:22 AM EDT 6:47 PM EDT
Nautical Twilight 5:49 AM EDT 7:19 PM EDT
Astronomical Twilight 5:16 AM EDT 7:52 PM EDT
Moon 10:26 PM EDT (10/6) 12:48 PM EDT (10/6)
Length of Visible Light 12h 25m
Length of Day
11h 28m
Waning Gibbous, 65% of the Moon is Illuminated
Oct 6
Waning Gibbous
Oct 8
Last Quarter
Oct 15
New
Oct 21
First Quarter
Oct 29
Full

Hourly Weather History & Observations

Time (EDT) Temp. Dew Point Humidity Pressure Visibility Wind Dir Wind Speed Gust Speed Precip Events Conditions
12:52 AM 57.0 °F 55.0 °F 93% 29.91 in 7.0 mi Calm Calm - N/A   Clear
1:52 AM 57.0 °F 55.0 °F 93% 29.90 in 7.0 mi Calm Calm - N/A   Partly Cloudy
2:52 AM 55.9 °F 53.1 °F 90% 29.88 in 9.0 mi Calm Calm - N/A   Clear
3:52 AM 55.0 °F 53.1 °F 93% 29.87 in 7.0 mi Calm Calm - N/A   Clear
4:52 AM 54.0 °F 53.1 °F 97% 29.86 in 2.5 mi Calm Calm - N/A   Clear
5:02 AM 53.6 °F 51.8 °F 94% 29.85 in 6.0 mi Calm Calm - N/A   Clear
5:11 AM 53.6 °F 51.8 °F 94% 29.85 in 1.8 mi Calm Calm - N/A   Partly Cloudy
5:19 AM 53.6 °F 51.8 °F 94% 29.85 in 0.2 mi Calm Calm - N/A Fog Fog
5:29 AM 53.6 °F 53.6 °F 100% 29.85 in 1.2 mi Calm Calm - N/A   Scattered Clouds
5:32 AM 53.6 °F 53.6 °F 100% 29.85 in 3.0 mi Calm Calm - N/A   Scattered Clouds
5:38 AM 51.8 °F 51.8 °F 100% 29.85 in 1.8 mi Calm Calm - N/A   Scattered Clouds
5:42 AM 53.6 °F 51.8 °F 94% 29.85 in 0.8 mi Calm Calm - N/A   Mist
5:49 AM 53.6 °F 51.8 °F 94% 29.85 in 1.2 mi Calm Calm - N/A   Partly Cloudy
5:52 AM 54.0 °F 52.0 °F 93% 29.85 in 3.0 mi Calm Calm - N/A   Clear
6:35 AM 53.6 °F 51.8 °F 94% 29.84 in 1.5 mi Calm Calm - N/A   Clear
6:37 AM 53.6 °F 51.8 °F 94% 29.84 in 0.8 mi Calm Calm - N/A   Mist
6:52 AM 53.1 °F 52.0 °F 96% 29.84 in 0.5 mi Calm Calm - N/A Fog Fog
7:00 AM 53.6 °F 51.8 °F 94% 29.83 in 2.5 mi Calm Calm - N/A   Partly Cloudy
7:07 AM 53.6 °F 51.8 °F 94% 29.84 in 5.0 mi Calm Calm - N/A   Partly Cloudy
8:52 AM 62.1 °F 57.9 °F 86% 29.83 in 7.0 mi SSE 4.6 mph - N/A   Clear
10:52 AM 75.0 °F 57.0 °F 53% 29.79 in 10.0 mi SSW 16.1 mph 24.2 mph N/A   Clear
11:52 AM 75.9 °F 57.0 °F 52% 29.76 in 10.0 mi SSW 11.5 mph - N/A   Partly Cloudy
12:52 PM 78.1 °F 55.0 °F 45% 29.73 in 10.0 mi SSW 12.7 mph 26.5 mph N/A   Clear
1:52 PM 78.1 °F 55.0 °F 45% 29.71 in 10.0 mi SSW 11.5 mph 23.0 mph N/A   Partly Cloudy
2:52 PM 78.1 °F 55.9 °F 46% 29.70 in 10.0 mi SSW 16.1 mph 25.3 mph N/A   Mostly Cloudy
3:52 PM 75.0 °F 57.0 °F 53% 29.70 in 10.0 mi SW 10.4 mph - N/A   Overcast
4:39 PM 64.4 °F 59.0 °F 83% 29.74 in 7.0 mi WNW 16.1 mph 24.2 mph 0.01 in Rain Light Rain
4:52 PM 62.1 °F 57.0 °F 84% 29.76 in 10.0 mi WNW 18.4 mph - 0.01 in Rain Light Rain
5:52 PM 60.1 °F 51.1 °F 72% 29.79 in 10.0 mi WNW 16.1 mph 23.0 mph 0.00 in   Overcast
6:52 PM 59.0 °F 48.9 °F 69% 29.82 in 10.0 mi WNW 13.8 mph - 0.00 in   Overcast
7:52 PM 57.0 °F 48.0 °F 72% 29.85 in 10.0 mi WNW 12.7 mph 18.4 mph N/A   Clear
8:52 PM 55.0 °F 46.0 °F 72% 29.89 in 10.0 mi NW 6.9 mph - N/A   Clear
9:52 PM 54.0 °F 42.1 °F 64% 29.91 in 10.0 mi WNW 8.1 mph - N/A   Clear
10:52 PM 52.0 °F 42.1 °F 69% 29.93 in 10.0 mi NW 3.5 mph - N/A   Clear
11:52 PM 50.0 °F 42.1 °F 74% 29.94 in 10.0 mi Calm Calm - N/A   Clear